| time (UTC) | temp F | wind direction | speed MPH | gust MPH | rain 1hr in | rain 24hr in | rain mn in | humidity % | barometer mb |
| 20260510191006 | 90 | 194 | 3.0 | 13.0 | 0.00 | 0.00 | 0.00 | 12 | 1016.7 |
| 20260510190506 | 90 | 180 | 7.0 | 13.0 | 0.00 | 0.00 | 0.00 | 13 | 1016.4 |
| 20260510190005 | 90 | 112 | 1.0 | 7.0 | 0.00 | 0.00 | 0.00 | 12 | 1016.8 |
| 20260510185505 | 90 | 271 | 1.0 | 7.0 | 0.00 | 0.00 | 0.00 | 13 | 1016.8 |
| 20260510185005 | 90 | 336 | 1.0 | 8.0 | 0.00 | 0.00 | 0.00 | 12 | 1016.8 |
| 20260510184503 | 91 | 243 | 3.0 | 6.0 | 0.00 | 0.00 | 0.00 | 12 | 1016.9 |
| 20260510184003 | 91 | 23 | 1.0 | 6.0 | 0.00 | 0.00 | 0.00 | 14 | 1016.9 |
| 20260510183504 | 90 | 73 | 0.0 | 7.0 | 0.00 | 0.00 | 0.00 | 13 | 1016.9 |
| 20260510183002 | 89 | 146 | 3.0 | 7.0 | 0.00 | 0.00 | 0.00 | 13 | 1017.0 |
| 20260510182500 | 88 | 230 | 1.0 | 10.0 | 0.00 | 0.00 | 0.00 | 12 | 1017.1 |
| 20260510182059 | 89 | 327 | 4.0 | 10.0 | 0.00 | 0.00 | 0.00 | 13 | 1017.1 |
| 20260510181634 | 89 | 286 | 4.0 | 9.0 | 0.00 | 0.00 | 0.00 | 13 | 1017.0 |
| 20260510181058 | 88 | 308 | 2.0 | 10.0 | 0.00 | 0.00 | 0.00 | 12 | 1017.1 |
| 20260510180558 | 89 | 355 | 4.0 | 14.0 | 0.00 | 0.00 | 0.00 | 12 | 1017.1 |
| 20260510180104 | 89 | 333 | 5.0 | 9.0 | 0.00 | 0.00 | 0.00 | 13 | 1017.1 |
| 20260510175558 | 90 | 13 | 4.0 | 8.0 | 0.00 | 0.00 | 0.00 | 13 | 1017.1 |
| 20260510175053 | 90 | 56 | 3.0 | 8.0 | 0.00 | 0.00 | 0.00 | 14 | 1017.1 |
| 20260510174558 | 88 | 359 | 5.0 | 8.0 | 0.00 | 0.00 | 0.00 | 13 | 1017.2 |
| 20260510174050 | 88 | 5 | 4.0 | 7.0 | 0.00 | 0.00 | 0.00 | 14 | 1017.2 |
| 20260510173551 | 88 | 357 | 3.0 | 7.0 | 0.00 | 0.00 | 0.00 | 14 | 1017.2 |
| 20260510173047 | 88 | 22 | 3.0 | 11.0 | 0.00 | 0.00 | 0.00 | 14 | 1017.2 |
| 20260510172546 | 88 | 20 | 5.0 | 11.0 | 0.00 | 0.00 | 0.00 | 13 | 1017.2 |
| 20260510172045 | 88 | 38 | 4.0 | 9.0 | 0.00 | 0.00 | 0.00 | 15 | 1017.1 |
| 20260510171545 | 87 | 30 | 4.0 | 9.0 | 0.00 | 0.00 | 0.00 | 15 | 1017.1 |
| 20260510171042 | 87 | 357 | 4.0 | 11.0 | 0.00 | 0.00 | 0.00 | 13 | 1017.1 |
| 20260510170541 | 87 | 349 | 5.0 | 11.0 | 0.00 | 0.00 | 0.00 | 14 | 1017.1 |
| 20260510170042 | 87 | 350 | 5.0 | 14.0 | 0.00 | 0.00 | 0.00 | 13 | 1017.0 |
| 20260510165541 | 88 | 7 | 6.0 | 14.0 | 0.00 | 0.00 | 0.00 | 14 | 1017.0 |
| 20260510165037 | 88 | 5 | 5.0 | 10.0 | 0.00 | 0.00 | 0.00 | 14 | 1017.0 |
| 20260510164541 | 87 | 51 | 4.0 | 11.0 | 0.00 | 0.00 | 0.00 | 15 | 1016.9 |
| 20260510164035 | 88 | 3 | 5.0 | 11.0 | 0.00 | 0.00 | 0.00 | 14 | 1016.8 |
| 20260510163534 | 87 | 40 | 7.0 | 11.0 | 0.00 | 0.00 | 0.00 | 15 | 1016.8 |
| 20260510163032 | 86 | 64 | 3.0 | 10.0 | 0.00 | 0.00 | 0.00 | 15 | 1016.8 |
| 20260510162532 | 86 | 70 | 4.0 | 10.0 | 0.00 | 0.00 | 0.00 | 16 | 1016.8 |
| 20260510162029 | 85 | 41 | 4.0 | 13.0 | 0.00 | 0.00 | 0.00 | 16 | 1016.7 |
| 20260510161532 | 85 | 43 | 7.0 | 16.0 | 0.00 | 0.00 | 0.00 | 15 | 1016.7 |
| 20260510161026 | 84 | 59 | 7.0 | 16.0 | 0.00 | 0.00 | 0.00 | 15 | 1016.7 |
| 20260510160525 | 84 | 71 | 6.0 | 15.0 | 0.00 | 0.00 | 0.00 | 16 | 1016.7 |
| 20260510160033 | 84 | 355 | 8.0 | 18.0 | 0.00 | 0.00 | 0.00 | 16 | 1016.7 |
| 20260510155527 | 84 | 32 | 9.0 | 18.0 | 0.00 | 0.00 | 0.00 | 16 | 1016.7 |
| 20260510155023 | 84 | 5 | 7.0 | 14.0 | 0.00 | 0.00 | 0.00 | 16 | 1016.6 |
| 20260510154519 | 84 | 358 | 6.0 | 11.0 | 0.00 | 0.00 | 0.00 | 16 | 1016.5 |
| 20260510154017 | 83 | 11 | 5.0 | 14.0 | 0.00 | 0.00 | 0.00 | 17 | 1016.5 |
| 20260510153520 | 83 | 13 | 7.0 | 15.0 | 0.00 | 0.00 | 0.00 | 17 | 1016.4 |
| 20260510153015 | 82 | 12 | 7.0 | 15.0 | 0.00 | 0.00 | 0.00 | 17 | 1016.3 |
| 20260510152513 | 82 | 17 | 5.0 | 13.0 | 0.00 | 0.00 | 0.00 | 17 | 1016.3 |
| 20260510152013 | 82 | 36 | 7.0 | 14.0 | 0.00 | 0.00 | 0.00 | 17 | 1016.3 |
| 20260510151511 | 81 | 40 | 5.0 | 14.0 | 0.00 | 0.00 | 0.00 | 17 | 1016.3 |
| 20260510151013 | 80 | 17 | 7.0 | 14.0 | 0.00 | 0.00 | 0.00 | 17 | 1016.2 |
| 20260510150508 | 80 | 51 | 9.0 | 14.0 | 0.00 | 0.00 | 0.00 | 17 | 1016.2 |
| 20260510150006 | 79 | 329 | 6.0 | 12.0 | 0.00 | 0.00 | 0.00 | 18 | 1016.2 |
| 20260510145504 | 79 | 44 | 6.0 | 11.0 | 0.00 | 0.00 | 0.00 | 18 | 1016.2 |
| 20260510145003 | 78 | 40 | 5.0 | 11.0 | 0.00 | 0.00 | 0.00 | 19 | 1016.1 |
| 20260510144503 | 77 | 16 | 6.0 | 11.0 | 0.00 | 0.00 | 0.00 | 19 | 1016.1 |
| 20260510144106 | 76 | 331 | 4.0 | 11.0 | 0.00 | 0.00 | 0.00 | 19 | 1016.1 |
| 20260510143559 | 76 | 49 | 5.0 | 11.0 | 0.00 | 0.00 | 0.00 | 19 | 1016.1 |
| 20260510143110 | 75 | 65 | 4.0 | 11.0 | 0.00 | 0.00 | 0.00 | 20 | 1016.0 |
| 20260510142557 | 75 | 40 | 6.0 | 10.0 | 0.00 | 0.00 | 0.00 | 19 | 1016.0 |
| 20260510142055 | 74 | 33 | 5.0 | 11.0 | 0.00 | 0.00 | 0.00 | 20 | 1016.0 |
| 20260510141556 | 74 | 17 | 4.0 | 13.0 | 0.00 | 0.00 | 0.00 | 20 | 1015.8 |
| 20260510141054 | 73 | 15 | 7.0 | 13.0 | 0.00 | 0.00 | 0.00 | 20 | 1015.8 |
| 20260510140554 | 73 | 355 | 5.0 | 11.0 | 0.00 | 0.00 | 0.00 | 20 | 1015.8 |
| 20260510140052 | 73 | 359 | 6.0 | 11.0 | 0.00 | 0.00 | 0.00 | 20 | 1015.8 |
| 20260510135550 | 73 | 41 | 4.0 | 10.0 | 0.00 | 0.00 | 0.00 | 20 | 1015.7 |
| 20260510135050 | 73 | 359 | 6.0 | 11.0 | 0.00 | 0.00 | 0.00 | 20 | 1015.6 |
| 20260510134550 | 73 | 29 | 6.0 | 11.0 | 0.00 | 0.00 | 0.00 | 20 | 1015.6 |
| 20260510134048 | 72 | 7 | 6.0 | 11.0 | 0.00 | 0.00 | 0.00 | 20 | 1015.6 |
| 20260510133553 | 71 | 7 | 5.0 | 12.0 | 0.00 | 0.00 | 0.00 | 20 | 1015.6 |
| 20260510133048 | 71 | 48 | 5.0 | 12.0 | 0.00 | 0.00 | 0.00 | 20 | 1015.6 |
| 20260510132547 | 71 | 17 | 7.0 | 12.0 | 0.00 | 0.00 | 0.00 | 20 | 1015.7 |
| 20260510132046 | 70 | 16 | 6.0 | 10.0 | 0.00 | 0.00 | 0.00 | 21 | 1015.7 |
| 20260510131546 | 70 | 26 | 5.0 | 10.0 | 0.00 | 0.00 | 0.00 | 21 | 1015.7 |
| 20260510131046 | 69 | 13 | 5.0 | 9.0 | 0.00 | 0.00 | 0.00 | 22 | 1015.6 |
| 20260510130545 | 69 | 23 | 3.0 | 8.0 | 0.00 | 0.00 | 0.00 | 22 | 1015.5 |
| 20260510130044 | 68 | 3 | 5.0 | 8.0 | 0.00 | 0.00 | 0.00 | 22 | 1015.5 |
| 20260510125544 | 68 | 351 | 3.0 | 8.0 | 0.00 | 0.00 | 0.00 | 23 | 1015.5 |
| 20260510125043 | 67 | 47 | 4.0 | 8.0 | 0.00 | 0.00 | 0.00 | 23 | 1015.3 |
| 20260510124544 | 68 | 11 | 4.0 | 9.0 | 0.00 | 0.00 | 0.00 | 23 | 1015.2 |
| 20260510124040 | 68 | 5 | 4.0 | 9.0 | 0.00 | 0.00 | 0.00 | 22 | 1015.1 |
| 20260510123540 | 68 | 19 | 4.0 | 9.0 | 0.00 | 0.00 | 0.00 | 22 | 1015.2 |
| 20260510123038 | 68 | 31 | 4.0 | 8.0 | 0.00 | 0.00 | 0.00 | 22 | 1015.2 |
| 20260510122537 | 69 | 15 | 4.0 | 8.0 | 0.00 | 0.00 | 0.00 | 22 | 1015.1 |
| 20260510122036 | 69 | 5 | 5.0 | 8.0 | 0.00 | 0.00 | 0.00 | 22 | 1015.1 |
| 20260510121537 | 68 | 15 | 3.0 | 7.0 | 0.00 | 0.00 | 0.00 | 22 | 1014.9 |
| 20260510121036 | 69 | 22 | 2.0 | 7.0 | 0.00 | 0.00 | 0.00 | 22 | 1014.9 |
| 20260510120534 | 69 | 32 | 3.0 | 6.0 | 0.00 | 0.00 | 0.00 | 22 | 1014.8 |
| 20260510120035 | 69 | 19 | 1.0 | 6.0 | 0.00 | 0.00 | 0.00 | 22 | 1014.8 |
| 20260510115534 | 69 | 55 | 3.0 | 7.0 | 0.00 | 0.00 | 0.00 | 22 | 1014.6 |
| 20260510115035 | 69 | 23 | 2.0 | 8.0 | 0.00 | 0.00 | 0.00 | 21 | 1014.6 |
| 20260510114538 | 69 | 49 | 1.0 | 8.0 | 0.00 | 0.00 | 0.00 | 21 | 1014.6 |
| 20260510114034 | 69 | 34 | 2.0 | 7.0 | 0.00 | 0.00 | 0.00 | 21 | 1014.6 |
| 20260510113531 | 70 | 38 | 2.0 | 7.0 | 0.00 | 0.00 | 0.00 | 21 | 1014.5 |
| 20260510113031 | 70 | 55 | 3.0 | 7.0 | 0.00 | 0.00 | 0.00 | 20 | 1014.5 |
| 20260510112531 | 71 | 61 | 2.0 | 7.0 | 0.00 | 0.00 | 0.00 | 20 | 1014.5 |
| 20260510112032 | 71 | 64 | 3.0 | 7.0 | 0.00 | 0.00 | 0.00 | 20 | 1014.4 |
| 20260510111531 | 71 | 37 | 3.0 | 7.0 | 0.00 | 0.00 | 0.00 | 19 | 1014.5 |
| 20260510111029 | 71 | 49 | 2.0 | 6.0 | 0.00 | 0.00 | 0.00 | 20 | 1014.5 |
| 20260510110530 | 71 | 53 | 2.0 | 7.0 | 0.00 | 0.00 | 0.00 | 20 | 1014.4 |
| 20260510110033 | 72 | 24 | 2.0 | 7.0 | 0.00 | 0.00 | 0.00 | 19 | 1014.4 |
| 20260510105531 | 72 | 11 | 3.0 | 6.0 | 0.00 | 0.00 | 0.00 | 19 | 1014.3 |
| 20260510105027 | 72 | 7 | 3.0 | 6.0 | 0.00 | 0.00 | 0.00 | 19 | 1014.3 |
| 20260510104527 | 71 | 16 | 2.0 | 7.0 | 0.00 | 0.00 | 0.00 | 19 | 1014.2 |
| 20260510104027 | 71 | 26 | 3.0 | 7.0 | 0.00 | 0.00 | 0.00 | 19 | 1014.1 |
| 20260510103527 | 72 | 31 | 2.0 | 8.0 | 0.00 | 0.00 | 0.00 | 19 | 1014.1 |
| 20260510103026 | 72 | 11 | 2.0 | 8.0 | 0.00 | 0.00 | 0.00 | 18 | 1014.1 |
| 20260510102526 | 73 | 9 | 5.0 | 9.0 | 0.00 | 0.00 | 0.00 | 18 | 1014.0 |
| 20260510102028 | 72 | 38 | 2.0 | 7.0 | 0.00 | 0.00 | 0.00 | 18 | 1014.0 |
| 20260510101525 | 72 | 11 | 4.0 | 7.0 | 0.00 | 0.00 | 0.00 | 18 | 1014.0 |
| 20260510101025 | 72 | 29 | 2.0 | 6.0 | 0.00 | 0.00 | 0.00 | 19 | 1013.9 |
| 20260510100525 | 71 | 49 | 2.0 | 5.0 | 0.00 | 0.00 | 0.00 | 19 | 1014.0 |
| 20260510100024 | 71 | 20 | 2.0 | 3.0 | 0.00 | 0.00 | 0.00 | 19 | 1014.0 |
| 20260510095524 | 71 | 33 | 0.0 | 4.0 | 0.00 | 0.00 | 0.00 | 19 | 1013.9 |
| 20260510095024 | 71 | 34 | 0.0 | 3.0 | 0.00 | 0.00 | 0.00 | 20 | 1013.9 |
| 20260510094528 | 70 | 30 | 0.0 | 3.0 | 0.00 | 0.00 | 0.00 | 21 | 1013.9 |
| 20260510094022 | 71 | 27 | 0.0 | 4.0 | 0.00 | 0.00 | 0.00 | 20 | 1013.9 |
| 20260510093522 | 71 | 30 | 1.0 | 4.0 | 0.00 | 0.00 | 0.00 | 20 | 1013.8 |
| 20260510093031 | 70 | 40 | 1.0 | 4.0 | 0.00 | 0.00 | 0.00 | 20 | 1013.8 |
| 20260510092521 | 70 | 56 | 0.0 | 2.0 | 0.00 | 0.00 | 0.00 | 20 | 1013.7 |
| 20260510092020 | 70 | 56 | 0.0 | 4.0 | 0.00 | 0.00 | 0.00 | 21 | 1013.6 |
| 20260510091521 | 69 | 56 | 0.0 | 2.0 | 0.00 | 0.00 | 0.00 | 20 | 1013.6 |
| 20260510091020 | 69 | 56 | 0.0 | 4.0 | 0.00 | 0.00 | 0.00 | 20 | 1013.6 |
| 20260510090520 | 69 | 56 | 1.0 | 3.0 | 0.00 | 0.00 | 0.00 | 21 | 1013.6 |
| 20260510090020 | 69 | 56 | 0.0 | 2.0 | 0.00 | 0.00 | 0.00 | 20 | 1013.6 |
| 20260510085518 | 69 | 56 | 0.0 | 2.0 | 0.00 | 0.00 | 0.00 | 20 | 1013.6 |
| 20260510085018 | 69 | 56 | 1.0 | 2.0 | 0.00 | 0.00 | 0.00 | 21 | 1013.6 |
| 20260510084527 | 69 | 56 | 0.0 | 1.0 | 0.00 | 0.00 | 0.00 | 22 | 1013.6 |
| 20260510084017 | 68 | 56 | 0.0 | 1.0 | 0.00 | 0.00 | 0.00 | 22 | 1013.6 |
| 20260510083516 | 69 | 56 | 0.0 | 1.0 | 0.00 | 0.00 | 0.00 | 21 | 1013.4 |
| 20260510083016 | 70 | 56 | 0.0 | 1.0 | 0.00 | 0.00 | 0.00 | 21 | 1013.4 |
| 20260510082515 | 70 | 56 | 0.0 | 5.0 | 0.00 | 0.00 | 0.00 | 20 | 1013.4 |
| 20260510082015 | 70 | 67 | 1.0 | 6.0 | 0.00 | 0.00 | 0.00 | 20 | 1013.4 |
| 20260510081523 | 70 | 65 | 3.0 | 6.0 | 0.00 | 0.00 | 0.00 | 20 | 1013.4 |
| 20260510081015 | 70 | 55 | 1.0 | 4.0 | 0.00 | 0.00 | 0.00 | 20 | 1013.4 |
| 20260510080514 | 70 | 105 | 0.0 | 4.0 | 0.00 | 0.00 | 0.00 | 19 | 1013.3 |
| 20260510080019 | 70 | 105 | 0.0 | 4.0 | 0.00 | 0.00 | 0.00 | 20 | 1013.3 |
| 20260510075514 | 70 | 92 | 1.0 | 4.0 | 0.00 | 0.00 | 0.00 | 21 | 1013.3 |
| 20260510075012 | 70 | 92 | 0.0 | 4.0 | 0.00 | 0.00 | 0.00 | 21 | 1013.3 |
| 20260510074512 | 69 | 83 | 0.0 | 4.0 | 0.00 | 0.00 | 0.00 | 21 | 1013.3 |
| 20260510074012 | 69 | 51 | 0.0 | 2.0 | 0.00 | 0.00 | 0.00 | 22 | 1013.4 |
| 20260510073509 | 70 | 51 | 0.0 | 4.0 | 0.00 | 0.00 | 0.00 | 21 | 1013.4 |
| 20260510073009 | 71 | 51 | 0.0 | 4.0 | 0.00 | 0.00 | 0.00 | 21 | 1013.3 |
| 20260510072508 | 71 | 52 | 1.0 | 4.0 | 0.00 | 0.00 | 0.00 | 21 | 1013.3 |
| 20260510072011 | 72 | 276 | 0.0 | 5.0 | 0.00 | 0.00 | 0.00 | 21 | 1013.3 |
| 20260510071507 | 72 | 184 | 3.0 | 6.0 | 0.00 | 0.00 | 0.00 | 20 | 1013.3 |
| 20260510071005 | 72 | 223 | 4.0 | 5.0 | 0.00 | 0.00 | 0.00 | 22 | 1013.2 |
| 20260510070504 | 72 | 254 | 1.0 | 3.0 | 0.00 | 0.00 | 0.00 | 20 | 1013.2 |
| 20260510070004 | 72 | 322 | 0.0 | 2.0 | 0.00 | 0.00 | 0.00 | 20 | 1013.2 |
| 20260510065503 | 72 | 322 | 0.0 | 2.0 | 0.00 | 0.00 | 0.00 | 20 | 1013.1 |
| 20260510065003 | 74 | 317 | 1.0 | 2.0 | 0.00 | 0.00 | 0.00 | 17 | 1013.1 |
| 20260510064506 | 75 | 310 | 0.0 | 5.0 | 0.00 | 0.00 | 0.00 | 16 | 1013.2 |
| 20260510064003 | 76 | 306 | 2.0 | 5.0 | 0.00 | 0.00 | 0.00 | 16 | 1013.1 |
| 20260510063503 | 76 | 308 | 0.0 | 7.0 | 0.00 | 0.00 | 0.00 | 16 | 1013.2 |
| 20260510063004 | 76 | 313 | 1.0 | 8.0 | 0.00 | 0.00 | 0.00 | 15 | 1013.1 |
| 20260510062601 | 76 | 295 | 2.0 | 8.0 | 0.00 | 0.00 | 0.00 | 15 | 1013.1 |
| 20260510062100 | 75 | 316 | 3.0 | 6.0 | 0.00 | 0.00 | 0.00 | 16 | 1013.1 |
| 20260510061558 | 74 | 324 | 2.0 | 6.0 | 0.00 | 0.00 | 0.00 | 17 | 1013.1 |
| 20260510061057 | 72 | 321 | 1.0 | 6.0 | 0.00 | 0.00 | 0.00 | 18 | 1013.1 |
| 20260510060556 | 73 | 307 | 0.0 | 3.0 | 0.00 | 0.00 | 0.00 | 19 | 1013.1 |
| 20260510060054 | 73 | 308 | 0.0 | 4.0 | 0.00 | 0.00 | 0.00 | 19 | 1013.1 |
| 20260510055554 | 74 | 294 | 0.0 | 6.0 | 0.00 | 0.00 | 0.00 | 18 | 1013.1 |
| 20260510055053 | 73 | 294 | 2.0 | 6.0 | 0.00 | 0.00 | 0.00 | 17 | 1013.1 |
| 20260510054553 | 72 | 320 | 0.0 | 4.0 | 0.00 | 0.00 | 0.00 | 18 | 1013.1 |
| 20260510054053 | 72 | 261 | 0.0 | 4.0 | 0.00 | 0.00 | 0.00 | 18 | 1013.1 |
| 20260510053553 | 72 | 230 | 0.0 | 2.0 | 0.00 | 0.00 | 0.00 | 19 | 1013.1 |
| 20260510053053 | 72 | 230 | 0.0 | 2.0 | 0.00 | 0.00 | 0.00 | 18 | 1013.1 |
| 20260510052553 | 72 | 230 | 0.0 | 1.0 | 0.00 | 0.00 | 0.00 | 19 | 1013.1 |
| 20260510052056 | 73 | 230 | 0.0 | 1.0 | 0.00 | 0.00 | 0.00 | 18 | 1013.1 |
| 20260510051552 | 73 | 230 | 0.0 | 1.0 | 0.00 | 0.00 | 0.00 | 18 | 1013.1 |
| 20260510051052 | 74 | 230 | 0.0 | 1.0 | 0.00 | 0.00 | 0.00 | 18 | 1013.1 |
| 20260510050551 | 74 | 230 | 0.0 | 2.0 | 0.00 | 0.00 | 0.00 | 17 | 1013.1 |
| 20260510050052 | 76 | 230 | 0.0 | 5.0 | 0.00 | 0.00 | 0.00 | 16 | 1013.1 |
| 20260510045552 | 76 | 230 | 2.0 | 5.0 | 0.00 | 0.00 | 0.00 | 15 | 1013.1 |
| 20260510045052 | 76 | 231 | 1.0 | 4.0 | 0.00 | 0.00 | 0.00 | 16 | 1013.1 |
| 20260510044551 | 76 | 212 | 1.0 | 4.0 | 0.00 | 0.00 | 0.00 | 16 | 1013.1 |
| 20260510044051 | 76 | 213 | 0.0 | 2.0 | 0.00 | 0.00 | 0.00 | 16 | 1013.0 |
| 20260510043551 | 76 | 213 | 0.0 | 2.0 | 0.00 | 0.00 | 0.00 | 16 | 1013.0 |
| 20260510043056 | 76 | 213 | 0.0 | 1.0 | 0.00 | 0.00 | 0.00 | 17 | 1013.0 |
| 20260510042555 | 77 | 213 | 0.0 | 4.0 | 0.00 | 0.00 | 0.00 | 15 | 1013.0 |
| 20260510042050 | 78 | 213 | 0.0 | 5.0 | 0.00 | 0.00 | 0.00 | 15 | 1013.0 |
| 20260510041550 | 79 | 219 | 2.0 | 5.0 | 0.00 | 0.00 | 0.00 | 13 | 1013.0 |
| 20260510041051 | 79 | 237 | 1.0 | 6.0 | 0.00 | 0.00 | 0.00 | 13 | 1012.9 |
| 20260510040551 | 79 | 225 | 1.0 | 9.0 | 0.00 | 0.00 | 0.00 | 13 | 1012.9 |
| 20260510040053 | 80 | 286 | 3.0 | 9.0 | 0.00 | 0.00 | 0.00 | 13 | 1012.8 |
| 20260510035549 | 80 | 236 | 3.0 | 8.0 | 0.00 | 0.00 | 0.00 | 13 | 1012.8 |
| 20260510035049 | 80 | 276 | 3.0 | 10.0 | 0.00 | 0.00 | 0.00 | 12 | 1012.7 |
| 20260510034551 | 80 | 229 | 4.0 | 10.0 | 0.00 | 0.00 | 0.00 | 12 | 1012.6 |
| 20260510034049 | 80 | 216 | 4.0 | 8.0 | 0.00 | 0.00 | 0.00 | 12 | 1012.6 |
| 20260510033548 | 81 | 232 | 3.0 | 10.0 | 0.00 | 0.00 | 0.00 | 13 | 1012.6 |
| 20260510033110 | 81 | 291 | 5.0 | 10.0 | 0.00 | 0.00 | 0.00 | 12 | 1012.6 |
| 20260510032548 | 81 | 232 | 3.0 | 10.0 | 0.00 | 0.00 | 0.00 | 12 | 1012.5 |
| 20260510032050 | 82 | 222 | 4.0 | 10.0 | 0.00 | 0.00 | 0.00 | 12 | 1012.5 |
| 20260510031550 | 82 | 257 | 6.0 | 9.0 | 0.00 | 0.00 | 0.00 | 11 | 1012.4 |
| 20260510031043 | 82 | 239 | 5.0 | 9.0 | 0.00 | 0.00 | 0.00 | 11 | 1012.4 |
| 20260510030541 | 82 | 272 | 5.0 | 10.0 | 0.00 | 0.00 | 0.00 | 11 | 1012.3 |
| 20260510030041 | 83 | 242 | 4.0 | 10.0 | 0.00 | 0.00 | 0.00 | 11 | 1012.2 |
| 20260510025541 | 83 | 254 | 4.0 | 9.0 | 0.00 | 0.00 | 0.00 | 11 | 1012.2 |
| 20260510025040 | 83 | 215 | 5.0 | 10.0 | 0.00 | 0.00 | 0.00 | 11 | 1012.1 |
| 20260510024545 | 84 | 221 | 6.0 | 10.0 | 0.00 | 0.00 | 0.00 | 11 | 1012.1 |
| 20260510024043 | 84 | 211 | 4.0 | 10.0 | 0.00 | 0.00 | 0.00 | 11 | 1012.0 |
| 20260510023540 | 84 | 248 | 5.0 | 12.0 | 0.00 | 0.00 | 0.00 | 11 | 1011.9 |
| 20260510023041 | 85 | 257 | 7.0 | 12.0 | 0.00 | 0.00 | 0.00 | 11 | 1011.8 |
| 20260510022540 | 85 | 248 | 6.0 | 11.0 | 0.00 | 0.00 | 0.00 | 11 | 1011.8 |
| 20260510022039 | 85 | 248 | 5.0 | 11.0 | 0.00 | 0.00 | 0.00 | 11 | 1011.7 |
| 20260510021540 | 85 | 232 | 6.0 | 13.0 | 0.00 | 0.00 | 0.00 | 11 | 1011.6 |
| 20260510021040 | 85 | 286 | 6.0 | 13.0 | 0.00 | 0.00 | 0.00 | 10 | 1011.5 |
| 20260510020540 | 86 | 261 | 6.0 | 12.0 | 0.00 | 0.00 | 0.00 | 11 | 1011.4 |
| 20260510020042 | 86 | 248 | 6.0 | 11.0 | 0.00 | 0.00 | 0.00 | 10 | 1011.4 |
| 20260510015539 | 86 | 281 | 5.0 | 10.0 | 0.00 | 0.00 | 0.00 | 10 | 1011.4 |
| 20260510015039 | 86 | 248 | 5.0 | 10.0 | 0.00 | 0.00 | 0.00 | 11 | 1011.3 |
| 20260510014539 | 86 | 228 | 4.0 | 12.0 | 0.00 | 0.00 | 0.00 | 10 | 1011.3 |
| 20260510014040 | 87 | 221 | 5.0 | 12.0 | 0.00 | 0.00 | 0.00 | 11 | 1011.2 |
| 20260510013539 | 87 | 224 | 6.0 | 11.0 | 0.00 | 0.00 | 0.00 | 10 | 1011.1 |
| 20260510013038 | 87 | 251 | 6.0 | 10.0 | 0.00 | 0.00 | 0.00 | 10 | 1011.1 |
| 20260510012538 | 88 | 252 | 5.0 | 12.0 | 0.00 | 0.00 | 0.00 | 10 | 1011.1 |
| 20260510012038 | 88 | 232 | 6.0 | 12.0 | 0.00 | 0.00 | 0.00 | 10 | 1011.1 |
| 20260510011549 | 88 | 252 | 7.0 | 12.0 | 0.00 | 0.00 | 0.00 | 10 | 1011.0 |
| 20260510011037 | 89 | 204 | 6.0 | 10.0 | 0.00 | 0.00 | 0.00 | 10 | 1011.0 |
| 20260510010537 | 89 | 224 | 5.0 | 8.0 | 0.00 | 0.00 | 0.00 | 10 | 1011.0 |
| 20260510010037 | 89 | 234 | 4.0 | 8.0 | 0.00 | 0.00 | 0.00 | 10 | 1011.0 |
| 20260510005537 | 89 | 198 | 4.0 | 8.0 | 0.00 | 0.00 | 0.00 | 10 | 1010.9 |
| 20260510005038 | 89 | 210 | 4.0 | 10.0 | 0.00 | 0.00 | 0.00 | 9 | 1011.0 |
| 20260510004540 | 90 | 184 | 6.0 | 10.0 | 0.00 | 0.00 | 0.00 | 9 | 1011.0 |
| 20260510004035 | 90 | 209 | 4.0 | 8.0 | 0.00 | 0.00 | 0.00 | 10 | 1011.0 |
| 20260510003535 | 90 | 194 | 4.0 | 8.0 | 0.00 | 0.00 | 0.00 | 9 | 1011.0 |
| 20260510003058 | 90 | 267 | 3.0 | 8.0 | 0.00 | 0.00 | 0.00 | 10 | 1011.0 |
| 20260510002534 | 90 | 231 | 5.0 | 13.0 | 0.00 | 0.00 | 0.00 | 9 | 1011.0 |
| 20260510002034 | 90 | 188 | 5.0 | 13.0 | 0.00 | 0.00 | 0.00 | 9 | 1011.0 |
| 20260510001539 | 90 | 240 | 3.0 | 12.0 | 0.00 | 0.00 | 0.00 | 9 | 1011.0 |
| 20260510001034 | 91 | 196 | 6.0 | 10.0 | 0.00 | 0.00 | 0.00 | 10 | 1011.0 |
| 20260510000533 | 91 | 152 | 6.0 | 13.0 | 0.00 | 0.00 | 0.00 | 9 | 1011.1 |
| 20260510000037 | 91 | 218 | 6.0 | 10.0 | 0.00 | 0.00 | 0.00 | 10 | 1011.1 |
| 20260509235532 | 91 | 281 | 4.0 | 10.0 | 0.00 | 0.00 | 0.00 | 10 | 1011.1 |
| 20260509235032 | 91 | 209 | 4.0 | 10.0 | 0.00 | 0.00 | 0.00 | 9 | 1011.2 |
| 20260509234536 | 91 | 206 | 5.0 | 9.0 | 0.00 | 0.00 | 0.00 | 9 | 1011.2 |
| 20260509234032 | 92 | 218 | 4.0 | 9.0 | 0.00 | 0.00 | 0.00 | 9 | 1011.2 |
| 20260509233531 | 92 | 136 | 5.0 | 10.0 | 0.00 | 0.00 | 0.00 | 10 | 1011.3 |
| 20260509233032 | 92 | 267 | 2.0 | 10.0 | 0.00 | 0.00 | 0.00 | 10 | 1011.3 |
| 20260509232532 | 92 | 242 | 2.0 | 11.0 | 0.00 | 0.00 | 0.00 | 10 | 1011.3 |
| 20260509232031 | 92 | 276 | 6.0 | 11.0 | 0.00 | 0.00 | 0.00 | 9 | 1011.4 |
| 20260509231539 | 92 | 210 | 3.0 | 13.0 | 0.00 | 0.00 | 0.00 | 9 | 1011.4 |
| 20260509231032 | 92 | 166 | 7.0 | 13.0 | 0.00 | 0.00 | 0.00 | 9 | 1011.4 |
| 20260509230529 | 92 | 158 | 6.0 | 13.0 | 0.00 | 0.00 | 0.00 | 9 | 1011.4 |
| 20260509230033 | 92 | 167 | 5.0 | 10.0 | 0.00 | 0.00 | 0.00 | 9 | 1011.5 |
| 20260509225530 | 92 | 156 | 5.0 | 11.0 | 0.00 | 0.00 | 0.00 | 9 | 1011.5 |
| 20260509225027 | 92 | 176 | 3.0 | 11.0 | 0.00 | 0.00 | 0.00 | 9 | 1011.7 |
| 20260509224529 | 92 | 186 | 7.0 | 11.0 | 0.00 | 0.00 | 0.00 | 9 | 1011.7 |
| 20260509224027 | 92 | 359 | 2.0 | 13.0 | 0.00 | 0.00 | 0.00 | 9 | 1011.6 |
| 20260509223526 | 92 | 323 | 4.0 | 13.0 | 0.00 | 0.00 | 0.00 | 9 | 1011.8 |
| 20260509223028 | 92 | 131 | 6.0 | 12.0 | 0.00 | 0.00 | 0.00 | 9 | 1011.9 |
| 20260509222524 | 93 | 129 | 4.0 | 8.0 | 0.00 | 0.00 | 0.00 | 9 | 1011.9 |
| 20260509222025 | 92 | 189 | 5.0 | 12.0 | 0.00 | 0.00 | 0.00 | 9 | 1012.0 |
| 20260509221524 | 93 | 164 | 7.0 | 12.0 | 0.00 | 0.00 | 0.00 | 9 | 1012.0 |
| 20260509221024 | 93 | 175 | 5.0 | 11.0 | 0.00 | 0.00 | 0.00 | 9 | 1012.1 |
| 20260509220523 | 93 | 186 | 5.0 | 8.0 | 0.00 | 0.00 | 0.00 | 9 | 1012.2 |
| 20260509220021 | 92 | 121 | 5.0 | 9.0 | 0.00 | 0.00 | 0.00 | 10 | 1012.2 |
| 20260509215523 | 92 | 104 | 5.0 | 12.0 | 0.00 | 0.00 | 0.00 | 9 | 1012.3 |
| 20260509215020 | 93 | 172 | 7.0 | 11.0 | 0.00 | 0.00 | 0.00 | 8 | 1012.3 |
| 20260509214520 | 92 | 126 | 5.0 | 9.0 | 0.00 | 0.00 | 0.00 | 9 | 1012.4 |
| 20260509214019 | 92 | 167 | 2.0 | 6.0 | 0.00 | 0.00 | 0.00 | 9 | 1012.5 |
| 20260509213521 | 91 | 167 | 0.0 | 13.0 | 0.00 | 0.00 | 0.00 | 9 | 1012.6 |
| 20260509213019 | 92 | 185 | 6.0 | 13.0 | 0.00 | 0.00 | 0.00 | 9 | 1012.8 |
| 20260509212518 | 92 | 259 | 5.0 | 10.0 | 0.00 | 0.00 | 0.00 | 9 | 1012.8 |
| 20260509212017 | 92 | 196 | 1.0 | 9.0 | 0.00 | 0.00 | 0.00 | 9 | 1012.9 |
| 20260509211515 | 92 | 219 | 4.0 | 9.0 | 0.00 | 0.00 | 0.00 | 10 | 1013.0 |
| 20260509211014 | 91 | 136 | 2.0 | 5.0 | 0.00 | 0.00 | 0.00 | 10 | 1013.1 |
| 20260509210513 | 91 | 9 | 1.0 | 5.0 | 0.00 | 0.00 | 0.00 | 10 | 1013.2 |
| 20260509210015 | 91 | 190 | 0.0 | 7.0 | 0.00 | 0.00 | 0.00 | 9 | 1013.3 |
| 20260509205511 | 91 | 202 | 3.0 | 9.0 | 0.00 | 0.00 | 0.00 | 9 | 1013.4 |
| 20260509205010 | 91 | 197 | 5.0 | 12.0 | 0.00 | 0.00 | 0.00 | 9 | 1013.5 |
| 20260509204510 | 92 | 220 | 6.0 | 12.0 | 0.00 | 0.00 | 0.00 | 10 | 1013.6 |
| 20260509204012 | 91 | 193 | 4.0 | 10.0 | 0.00 | 0.00 | 0.00 | 8 | 1013.5 |
| 20260509203611 | 91 | 192 | 6.0 | 12.0 | 0.00 | 0.00 | 0.00 | 8 | 1013.7 |
| 20260509203009 | 91 | 137 | 5.0 | 12.0 | 0.00 | 0.00 | 0.00 | 9 | 1013.7 |
| 20260509202508 | 91 | 170 | 3.0 | 9.0 | 0.00 | 0.00 | 0.00 | 10 | 1013.8 |
| 20260509202010 | 91 | 344 | 3.0 | 10.0 | 0.00 | 0.00 | 0.00 | 9 | 1013.9 |
| 20260509201510 | 91 | 186 | 6.0 | 10.0 | 0.00 | 0.00 | 0.00 | 11 | 1014.0 |
| 20260509201007 | 91 | 214 | 3.0 | 10.0 | 0.00 | 0.00 | 0.00 | 10 | 1014.1 |
| 20260509200507 | 90 | 267 | 1.0 | 10.0 | 0.00 | 0.00 | 0.00 | 10 | 1014.2 |
| 20260509200008 | 90 | 317 | 2.0 | 10.0 | 0.00 | 0.00 | 0.00 | 10 | 1014.2 |
| 20260509195508 | 90 | 263 | 6.0 | 9.0 | 0.00 | 0.00 | 0.00 | 11 | 1014.3 |
| 20260509195006 | 90 | 201 | 5.0 | 9.0 | 0.00 | 0.00 | 0.00 | 11 | 1014.4 |
| 20260509194510 | 90 | 96 | 2.0 | 9.0 | 0.00 | 0.00 | 0.00 | 12 | 1014.4 |
| 20260509194005 | 90 | 125 | 4.0 | 10.0 | 0.00 | 0.00 | 0.00 | 11 | 1014.5 |
| 20260509193504 | 90 | 198 | 6.0 | 10.0 | 0.00 | 0.00 | 0.00 | 11 | 1014.5 |
| 20260509193004 | 89 | 172 | 4.0 | 10.0 | 0.00 | 0.00 | 0.00 | 12 | 1014.6 |
| 20260509192503 | 89 | 236 | 3.0 | 10.0 | 0.00 | 0.00 | 0.00 | 11 | 1014.7 |
| 20260509192003 | 89 | 218 | 5.0 | 9.0 | 0.00 | 0.00 | 0.00 | 12 | 1014.7 |
| 20260509191503 | 88 | 180 | 0.0 | 9.0 | 0.00 | 0.00 | 0.00 | 12 | 1014.7 |